Theta_e
294 294 293 293 293 293 292 291 292 291 291 290 290 289 289 289 288 289 288 287 286 286
292 292 291 291 292 292 292 290 290 291 290 289 289 289 288 287 286 287 287 286 286 285
290 290 290 290 290 290 290 290 289 289 289 288 288 288 287 287 286 286 286 285 284 284
288 289 289 289 289 289 289 288 287 287 286 286 286 286 286 286 285 284 284 285 284 283
287 288 287 287 287 287 287 287 286 285 284 284 284 284 284 284 284 284 283 283 283 282
287 287 287 286 286 286 285 285 284 284 283 283 283 283 283 283 284 283 283 283 282 282
287 287 286 286 285 285 284 284 283 283 283 282 282 282 282 283 283 283 283 283 282 282
286 286 286 285 284 284 283 283 282 282 282 282 282 281 281 282 282 282 281 282 281 281
285 284 284 284 283 283 282 282 281 281 281 280 281 281 281 281 280 280 280 280 280 280
284 283 283 283 283 282 281 281 280 280 280 280 281 281 280 280 279 279 280 279 279 278
283 282 282 282 282 282 282 281 280 280 280 280 280 280 279 279 279 279 279 279 279 278
282 281 281 281 281 281 281 281 280 280 280 279 279 280 279 278 278 278 278 279 278 278
282 282 281 281 281 281 281 280 280 279 279 279 277 279 278 278 277 276 277 278 278 279
281 281 281 281 281 280 279 279 278 277 277 277 277 276 278 278 277 276 276 276 276 277
Wind_Speed
9 5 6 5 5 4 5 4 6 6 5 5 5 5 5 5 5 5 4 5 5 5
7 8 7 6 6 4 5 4 5 4 4 4 4 5 5 4 4 4 4 4 5 5
8 7 6 5 5 5 4 4 4 3 3 3 3 4 3 2 3 4 3 3 6 6
7 6 5 4 4 4 4 3 3 2 2 2 2 3 3 3 3 4 5 5 6 7
6 5 5 4 4 3 3 3 2 1 0 1 2 2 3 4 5 6 6 7 7 8
6 5 4 4 4 3 3 3 3 2 2 3 2 3 4 5 6 6 7 7 8 8
5 5 4 4 3 3 3 3 3 3 3 3 4 4 4 6 6 7 7 7 8 8
5 5 4 4 3 3 4 4 4 4 5 4 4 4 4 6 7 7 8 8 8 7
5 5 4 4 4 5 5 5 6 6 5 5 4 5 7 7 8 9 9 8 8 8
6 6 5 5 5 6 6 5 6 6 5 6 6 6 8 9 8 9 8 8 8 8
6 6 5 5 6 5 5 6 6 6 6 6 5 7 9 10 9 8 8 8 8 8
7 6 6 6 6 6 5 4 5 4 6 6 7 9 9 9 8 8 9 7 8 8
6 6 7 7 5 3 3 6 4 6 6 6 8 10 10 9 6 8 7 8 8 10
6 6 4 3 3 4 5 5 4 5 5 7 8 9 11 10 7 7 6 7 7 6
Wind_Direction
96 105 93 85 93 88 85 75 75 71 66 62 53 52 51 43 32 28 12 18 2 338
105 96 100 93 88 86 90 96 81 81 80 63 60 41 48 41 22 13 1 358 343 343
102 103 104 98 96 101 104 104 97 90 79 63 51 42 23 15 12 348 353 345 328 330
113 113 111 116 116 112 110 105 99 98 67 42 22 16 349 344 324 320 321 323 324 316
129 136 136 136 124 132 123 117 120 153 109 336 317 335 316 319 325 314 312 318 316 312
147 154 152 145 133 160 155 162 181 218 246 269 298 294 297 305 300 306 310 312 310 309
165 169 171 153 168 170 194 199 217 229 243 262 280 278 281 290 298 307 312 308 305 302
173 179 169 174 180 190 211 220 233 245 243 256 266 274 312 303 306 305 306 302 298 307
180 185 188 193 200 210 217 221 229 240 248 263 265 268 280 291 303 301 292 299 310 311
191 195 198 200 206 219 225 231 241 249 251 251 253 258 275 292 286 287 295 304 304 301
192 198 197 205 219 229 228 233 240 244 248 264 269 264 273 283 285 291 295 294 296 294
192 199 201 215 220 223 227 236 248 256 258 257 264 267 270 291 296 289 291 294 294 295
190 201 207 211 214 210 230 249 244 250 253 266 271 274 269 273 283 290 293 295 294 287
192 198 208 200 206 202 222 240 241 262 265 260 257 264 266 264 273 280 293 298 298 302